Regional Weather Roundup
Issued by NWS

Home | Current Version | Previous Version | Graphics & Text | Print | Product List | Glossary On
Versions: 1 2 3 4 5 6 7 8 9 10 11 12 13 14 15 16 17 18 19 20 21 22 23 24 25 26 27 28 29 30 31 32 33 34 35 36 37 38 39 40 41 42 43 44 45 46 47 48 49 50
000
ASUS45 KABQ 231910
RWRNM
NEW MEXICO REGIONAL WEATHER ROUNDUP
NATIONAL WEATHER SERVICE ALBUQUERQUE NM
100 PM MDT SAT MAY 23 2015

NOTE: "FAIR" MEANS FEW OR NO CLOUDS BELOW 12,000 FEET AGL WITH NO
       SIGNIFICANT WEATHER OR OBSTRUCTIONS TO VISION.

      THIS PRODUCT IS RELEASED AS TWO VERSIONS.  ONE VERSION NEAR
      THE TOP OF THE HOUR CONTAINING PRELIMINARY DATA FROM ALBUQUERQUE
      AND OTHER STATIONS.  A FINAL VERSION WITH ADDITIONAL DATA IS
      ISSUED ABOUT 10 MINUTES AFTER THE HOUR.

NMZ501-503-504-510>518-232000-
NORTHWEST PLATEAU/NORTHCENTRAL MOUNTAINS

CITY           SKY/WX    TMP DP  RH WIND       PRES   REMARKS
FARMINGTON     PTSUNNY   60  24  25 S9        30.00F
LOS ALAMOS     PTSUNNY   55  25  31 S15       30.06F
SANTA FE       SUNNY     64  25  22 W16G23    30.02F
TAOS           PTSUNNY   57  25  28 SW18G28   30.03F
ANGEL FIRE     FAIR      54  28  36 W18G25    30.05F

$$
NMZ402-403-502-505>509-232000-
WESTCENTRAL MOUNTAINS/SOUTHWEST MOUNTAINS

CITY           SKY/WX    TMP DP  RH WIND       PRES   REMARKS
GALLUP         MOSUNNY   58  23  26 W13G28    30.06F
GRANTS         PTSUNNY   60  22  22 SW9       30.06F
SILVER CITY      N/A     66  21  18 SW14G22   30.06F

$$
NMZ407-409-411-412-232000-
SOUTHERN DESERTS

CITY           SKY/WX    TMP DP  RH WIND       PRES   REMARKS
LORDSBURG      FAIR      70  28  21 SW10G17   30.03F
DEMING         SUNNY     72  23  16 W16       30.01F
LAS CRUCES     SUNNY     75  20  12 SW16G26   30.02F
HOLLOMAN AFB   MOSUNNY   76  21  12 N21G29    29.97F
ALAMOGORDO     SUNNY     75  19  12 SW14G21   30.00F
T OR C         SUNNY     73  23  15 S16       29.96F

$$
NMZ519>523-232000-
CENTRAL VALLEYS/CENTRAL HIGHLANDS

CITY           SKY/WX    TMP DP  RH WIND       PRES   REMARKS
ALBUQUERQUE    MOSUNNY   67  30  25 VRB5      30.00F
DOUBLE EAGLE   MOSUNNY   64  27  24 SW12G26   30.02F
MORIARTY ARPT  FAIR      66  22  18 SW13G18   30.02F
CLINES CORNERS SUNNY     63  27  25 SW23G32   30.03F
BELEN          FAIR      70  21  15 S12G18    29.98F
SOCORRO        FAIR      72  19  13 SW10G24   29.96F

$$
NMZ524>526-539-540-232000-
SOUTHCENTRAL MOUNTAINS

CITY           SKY/WX    TMP DP  RH WIND       PRES   REMARKS
RUIDOSO        SUNNY     63  18  17 SW29G39   30.07F

$$
NMZ527>531-232000-
NORTHEAST HIGHLANDS/NORTHEAST PLAINS

CITY           SKY/WX    TMP DP  RH WIND       PRES   REMARKS
LAS VEGAS      MOSUNNY   63  28  26 SW17G28   30.01F
RATON          MOSUNNY   67  41  38 S24       29.93F
CLAYTON        PTSUNNY   64  55  72 SE17G23   29.97F

$$
NMZ532>537-232000-
EASTCENTRAL PLAINS

CITY           SKY/WX    TMP DP  RH WIND       PRES   REMARKS
TUCUMCARI      SUNNY     78  36  21 W20       29.90F
CANNON AFB     SUNNY     75  46  35 SW12G22   29.94F
CLOVIS AIRPORT SUNNY     75  48  38 W13       29.95F

$$
NMZ028-029-538-232000-
SOUTHEAST PLAINS

CITY           SKY/WX    TMP DP  RH WIND       PRES   REMARKS
ROSWELL        SUNNY     85  28  12 SW30G40   29.88F
ARTESIA        SUNNY     84  32  15 SW21G28   29.93F
CARLSBAD       MOSUNNY   82  48  30 VRB3      29.90F
HOBBS          MOSUNNY   77  55  47 S9        29.97F


$$


USA.gov is the U.S. government's official web portal to all federal, state and local government web resources and services.